Wetterdaten: Montag, 07.03.2016
Datum Zeit Temperatur Luftfeuchte Luftdruck Regen Wind Richtung Richtung Sonnenschein ET UV Solar Taupunkt Windchill Windben
07.03.2016 00:00 1,1 C 95 % 1002,0 hPa 0,0 l/m 0,1 km/h (0 Bft) W-NW 295 0 min 0,000 mm 0,0 UV-I 0 W/m 0,4 C 1,1 C 3,2 km/h (1 Bft)
07.03.2016 00:05 1,1 C 95 % 1002,1 hPa 0,0 l/m 0,0 km/h (0 Bft) W-NW 295 0 min 0,000 mm 0,0 UV-I 0 W/m 0,4 C 1,1 C 0,0 km/h (0 Bft)
07.03.2016 00:10 1,0 C 95 % 1002,1 hPa 0,0 l/m 0,0 km/h (0 Bft) W 268 0 min 0,000 mm 0,0 UV-I 0 W/m 0,3 C 1,0 C 0,0 km/h (0 Bft)
07.03.2016 00:15 1,0 C 95 % 1002,1 hPa 0,0 l/m 0,5 km/h (0 Bft) W-NW 283 0 min 0,000 mm 0,0 UV-I 0 W/m 0,3 C 1,0 C 4,8 km/h (1 Bft)
07.03.2016 00:20 0,9 C 95 % 1002,1 hPa 0,0 l/m 0,7 km/h (0 Bft) W-NW 284 0 min 0,000 mm 0,0 UV-I 0 W/m 0,2 C 0,9 C 4,8 km/h (1 Bft)
07.03.2016 00:25 0,9 C 95 % 1002,2 hPa 0,0 l/m 0,0 km/h (0 Bft) W-NW 284 0 min 0,000 mm 0,0 UV-I 0 W/m 0,2 C 0,9 C 1,6 km/h (1 Bft)
07.03.2016 00:30 0,9 C 95 % 1002,2 hPa 0,0 l/m 0,8 km/h (0 Bft) W-NW 284 0 min 0,000 mm 0,0 UV-I 0 W/m 0,2 C 0,9 C 3,2 km/h (1 Bft)
07.03.2016 00:35 0,9 C 95 % 1002,2 hPa 0,0 l/m 0,9 km/h (0 Bft) W-NW 294 0 min 0,000 mm 0,0 UV-I 0 W/m 0,2 C 0,9 C 4,8 km/h (1 Bft)
07.03.2016 00:40 0,9 C 95 % 1002,2 hPa 0,0 l/m 0,8 km/h (0 Bft) W-NW 296 0 min 0,000 mm 0,0 UV-I 0 W/m 0,2 C 0,9 C 4,8 km/h (1 Bft)
07.03.2016 00:45 0,9 C 94 % 1002,2 hPa 0,0 l/m 0,2 km/h (0 Bft) W-NW 303 0 min 0,000 mm 0,0 UV-I 0 W/m 0,0 C 0,9 C 3,2 km/h (1 Bft)
07.03.2016 00:50 0,9 C 94 % 1002,2 hPa 0,0 l/m 0,0 km/h (0 Bft) W-NW 303 0 min 0,000 mm 0,0 UV-I 0 W/m 0,0 C 0,9 C 1,6 km/h (1 Bft)
07.03.2016 00:55 1,0 C 94 % 1002,3 hPa 0,0 l/m 0,0 km/h (0 Bft) W-NW 303 0 min 0,000 mm 0,0 UV-I 0 W/m 0,1 C 1,0 C 0,0 km/h (0 Bft)
07.03.2016 01:00 1,0 C 94 % 1002,3 hPa 0,0 l/m 1,2 km/h (1 Bft) W-NW 302 0 min 0,000 mm 0,0 UV-I 0 W/m 0,1 C 1,0 C 9,7 km/h (2 Bft)
07.03.2016 01:05 1,0 C 94 % 1002,3 hPa 0,0 l/m 1,5 km/h (1 Bft) W-NW 293 0 min 0,000 mm 0,0 UV-I 0 W/m 0,1 C 1,0 C 9,7 km/h (2 Bft)
07.03.2016 01:10 0,9 C 93 % 1002,3 hPa 0,0 l/m 0,9 km/h (0 Bft) W-NW 300 0 min 0,000 mm 0,0 UV-I 0 W/m -0,1 C 0,9 C 6,4 km/h (2 Bft)
07.03.2016 01:15 0,9 C 93 % 1002,3 hPa 0,0 l/m 1,1 km/h (1 Bft) W-NW 290 0 min 0,000 mm 0,0 UV-I 0 W/m -0,1 C 0,9 C 4,8 km/h (1 Bft)
07.03.2016 01:20 0,9 C 93 % 1002,3 hPa 0,0 l/m 1,1 km/h (1 Bft) W-NW 282 0 min 0,000 mm 0,0 UV-I 0 W/m -0,1 C 0,9 C 4,8 km/h (1 Bft)
07.03.2016 01:25 0,9 C 93 % 1002,4 hPa 0,0 l/m 1,2 km/h (1 Bft) W-NW 288 0 min 0,000 mm 0,0 UV-I 0 W/m -0,1 C 0,9 C 8,0 km/h (2 Bft)
07.03.2016 01:30 0,9 C 92 % 1002,4 hPa 0,0 l/m 0,3 km/h (0 Bft) W 263 0 min 0,000 mm 0,0 UV-I 0 W/m -0,2 C 0,9 C 4,8 km/h (1 Bft)
07.03.2016 01:35 0,9 C 93 % 1002,4 hPa 0,0 l/m 0,0 km/h (0 Bft) W 263 0 min 0,000 mm 0,0 UV-I 0 W/m -0,1 C 0,9 C 0,0 km/h (0 Bft)
07.03.2016 01:40 0,9 C 93 % 1002,5 hPa 0,0 l/m 0,0 km/h (0 Bft) W 263 0 min 0,000 mm 0,0 UV-I 0 W/m -0,1 C 0,9 C 0,0 km/h (0 Bft)
07.03.2016 01:45 0,9 C 93 % 1002,5 hPa 0,0 l/m 0,0 km/h (0 Bft) W 263 0 min 0,000 mm 0,0 UV-I 0 W/m -0,1 C 0,9 C 0,0 km/h (0 Bft)
07.03.2016 01:50 0,9 C 93 % 1002,5 hPa 0,0 l/m 0,0 km/h (0 Bft) W 263 0 min 0,000 mm 0,0 UV-I 0 W/m -0,1 C 0,9 C 0,0 km/h (0 Bft)
07.03.2016 01:55 0,9 C 93 % 1002,6 hPa 0,0 l/m 0,0 km/h (0 Bft) W-NW 282 0 min 0,000 mm 0,0 UV-I 0 W/m -0,1 C 0,9 C 0,0 km/h (0 Bft)
07.03.2016 02:00 0,9 C 93 % 1002,6 hPa 0,0 l/m 0,8 km/h (0 Bft) W-NW 284 0 min 0,000 mm 0,0 UV-I 0 W/m -0,1 C 0,9 C 8,0 km/h (2 Bft)
07.03.2016 02:05 0,8 C 92 % 1002,5 hPa 0,0 l/m 1,7 km/h (1 Bft) W-NW 285 0 min 0,000 mm 0,0 UV-I 0 W/m -0,3 C 0,8 C 8,0 km/h (2 Bft)
07.03.2016 02:10 0,8 C 91 % 1002,6 hPa 0,0 l/m 3,0 km/h (1 Bft) W-NW 286 0 min 0,000 mm 0,0 UV-I 0 W/m -0,5 C 0,8 C 8,0 km/h (2 Bft)
07.03.2016 02:15 0,8 C 91 % 1002,5 hPa 0,0 l/m 0,0 km/h (0 Bft) W-NW 292 0 min 0,000 mm 0,0 UV-I 0 W/m -0,5 C 0,8 C 0,0 km/h (0 Bft)
07.03.2016 02:20 0,7 C 91 % 1002,4 hPa 0,0 l/m 0,0 km/h (0 Bft) W-NW 292 0 min 0,000 mm 0,0 UV-I 0 W/m -0,6 C 0,7 C 0,0 km/h (0 Bft)
07.03.2016 02:25 0,7 C 91 % 1002,4 hPa 0,0 l/m 0,0 km/h (0 Bft) W-NW 292 0 min 0,000 mm 0,0 UV-I 0 W/m -0,6 C 0,7 C 0,0 km/h (0 Bft)
07.03.2016 02:30 0,6 C 91 % 1002,4 hPa 0,0 l/m 0,0 km/h (0 Bft) W-NW 292 0 min 0,000 mm 0,0 UV-I 0 W/m -0,7 C 0,6 C 0,0 km/h (0 Bft)
07.03.2016 02:34 0,4 C 91 % 1002,4 hPa 0,0 l/m 0,0 km/h (0 Bft) W-NW 292 0 min 0,000 mm 0,0 UV-I 0 W/m -0,9 C 0,4 C 0,0 km/h (0 Bft)
07.03.2016 02:35 0,4 C 91 % 1002,4 hPa 0,0 l/m 0,0 km/h (0 Bft) W-NW 292 0 min 0,000 mm 0,0 UV-I 0 W/m -0,9 C 0,4 C 0,0 km/h (0 Bft)
07.03.2016 02:40 0,3 C 92 % 1002,4 hPa 0,0 l/m 0,0 km/h (0 Bft) W-NW 292 0 min 0,000 mm 0,0 UV-I 0 W/m -0,8 C 0,3 C 0,0 km/h (0 Bft)
07.03.2016 02:45 0,2 C 92 % 1002,3 hPa 0,0 l/m 0,0 km/h (0 Bft) W-NW 295 0 min 0,000 mm 0,0 UV-I 0 W/m -0,9 C 0,2 C 0,0 km/h (0 Bft)
07.03.2016 02:50 0,2 C 92 % 1002,3 hPa 0,0 l/m 0,0 km/h (0 Bft) W-NW 295 0 min 0,000 mm 0,0 UV-I 0 W/m -0,9 C 0,2 C 0,0 km/h (0 Bft)
07.03.2016 02:55 0,1 C 93 % 1002,3 hPa 0,0 l/m 0,0 km/h (0 Bft) W-NW 295 0 min 0,000 mm 0,0 UV-I 0 W/m -0,9 C 0,1 C 0,0 km/h (0 Bft)
07.03.2016 03:00 0,0 C 93 % 1002,3 hPa 0,0 l/m 0,0 km/h (0 Bft) W-NW 295 0 min 0,000 mm 0,0 UV-I 0 W/m -1,0 C 0,0 C 0,0 km/h (0 Bft)
07.03.2016 03:05 -0,1 C 93 % 1002,3 hPa 0,0 l/m 0,0 km/h (0 Bft) W-NW 295 0 min 0,000 mm 0,0 UV-I 0 W/m -1,1 C -0,1 C 0,0 km/h (0 Bft)
07.03.2016 03:10 -0,2 C 93 % 1002,3 hPa 0,0 l/m 0,0 km/h (0 Bft) W-NW 295 0 min 0,000 mm 0,0 UV-I 0 W/m -1,2 C -0,2 C 0,0 km/h (0 Bft)
07.03.2016 03:15 -0,2 C 93 % 1002,3 hPa 0,0 l/m 0,0 km/h (0 Bft) W-NW 295 0 min 0,000 mm 0,0 UV-I 0 W/m -1,2 C -0,2 C 0,0 km/h (0 Bft)
07.03.2016 03:20 -0,3 C 93 % 1002,2 hPa 0,0 l/m 0,0 km/h (0 Bft) W-NW 295 0 min 0,000 mm 0,0 UV-I 0 W/m -1,3 C -0,3 C 0,0 km/h (0 Bft)
07.03.2016 03:25 -0,4 C 93 % 1002,3 hPa 0,0 l/m 0,0 km/h (0 Bft) W-NW 295 0 min 0,000 mm 0,0 UV-I 0 W/m -1,4 C -0,4 C 0,0 km/h (0 Bft)
07.03.2016 03:30 -0,5 C 94 % 1002,3 hPa 0,0 l/m 0,0 km/h (0 Bft) W-NW 295 0 min 0,000 mm 0,0 UV-I 0 W/m -1,3 C -0,5 C 0,0 km/h (0 Bft)
07.03.2016 03:35 -0,5 C 94 % 1002,3 hPa 0,0 l/m 0,0 km/h (0 Bft) W-NW 295 0 min 0,000 mm 0,0 UV-I 0 W/m -1,3 C -0,5 C 0,0 km/h (0 Bft)
07.03.2016 03:40 -0,6 C 94 % 1002,4 hPa 0,0 l/m 0,0 km/h (0 Bft) W-NW 295 0 min 0,000 mm 0,0 UV-I 0 W/m -1,4 C -0,6 C 0,0 km/h (0 Bft)
07.03.2016 03:45 -0,6 C 94 % 1002,3 hPa 0,0 l/m 0,0 km/h (0 Bft) W-NW 295 0 min 0,000 mm 0,0 UV-I 0 W/m -1,4 C -0,6 C 0,0 km/h (0 Bft)
07.03.2016 03:50 -0,6 C 94 % 1002,3 hPa 0,0 l/m 0,0 km/h (0 Bft) W-NW 295 0 min 0,000 mm 0,0 UV-I 0 W/m -1,4 C -0,6 C 0,0 km/h (0 Bft)
07.03.2016 03:55 -0,7 C 94 % 1002,3 hPa 0,0 l/m 0,0 km/h (0 Bft) W-NW 295 0 min 0,000 mm 0,0 UV-I 0 W/m -1,5 C -0,7 C 0,0 km/h (0 Bft)
07.03.2016 04:00 -0,7 C 94 % 1002,3 hPa 0,0 l/m 0,0 km/h (0 Bft) W-NW 295 0 min 0,000 mm 0,0 UV-I 0 W/m -1,5 C -0,7 C 0,0 km/h (0 Bft)
07.03.2016 04:05 -0,7 C 94 % 1002,3 hPa 0,0 l/m 0,0 km/h (0 Bft) W-NW 295 0 min 0,000 mm 0,0 UV-I 0 W/m -1,5 C -0,7 C 0,0 km/h (0 Bft)
07.03.2016 04:10 -0,7 C 94 % 1002,3 hPa 0,0 l/m 0,0 km/h (0 Bft) W-NW 295 0 min 0,000 mm 0,0 UV-I 0 W/m -1,5 C -0,7 C 0,0 km/h (0 Bft)
07.03.2016 04:15 -0,8 C 94 % 1002,4 hPa 0,0 l/m 0,0 km/h (0 Bft) W-NW 295 0 min 0,000 mm 0,0 UV-I 0 W/m -1,6 C -0,8 C 0,0 km/h (0 Bft)
07.03.2016 04:20 -0,8 C 94 % 1002,4 hPa 0,0 l/m 0,0 km/h (0 Bft) W-NW 295 0 min 0,000 mm 0,0 UV-I 0 W/m -1,6 C -0,8 C 0,0 km/h (0 Bft)
07.03.2016 04:25 -0,8 C 94 % 1002,3 hPa 0,0 l/m 0,0 km/h (0 Bft) W-NW 295 0 min 0,000 mm 0,0 UV-I 0 W/m -1,6 C -0,8 C 0,0 km/h (0 Bft)
07.03.2016 04:30 -0,9 C 94 % 1002,3 hPa 0,0 l/m 0,0 km/h (0 Bft) W-NW 295 0 min 0,000 mm 0,0 UV-I 0 W/m -1,7 C -0,9 C 0,0 km/h (0 Bft)
07.03.2016 04:35 -1,0 C 94 % 1002,3 hPa 0,0 l/m 0,0 km/h (0 Bft) W-NW 295 0 min 0,000 mm 0,0 UV-I 0 W/m -1,8 C -1,0 C 0,0 km/h (0 Bft)
07.03.2016 04:40 -1,1 C 94 % 1002,4 hPa 0,0 l/m 0,0 km/h (0 Bft) W-NW 295 0 min 0,000 mm 0,0 UV-I 0 W/m -1,9 C -1,1 C 0,0 km/h (0 Bft)
07.03.2016 04:45 -1,1 C 94 % 1002,3 hPa 0,0 l/m 0,0 km/h (0 Bft) W-NW 295 0 min 0,000 mm 0,0 UV-I 0 W/m -1,9 C -1,1 C 0,0 km/h (0 Bft)
07.03.2016 04:50 -1,1 C 94 % 1002,4 hPa 0,0 l/m 0,0 km/h (0 Bft) W-NW 295 0 min 0,000 mm 0,0 UV-I 0 W/m -1,9 C -1,1 C 0,0 km/h (0 Bft)
07.03.2016 04:55 -1,1 C 94 % 1002,3 hPa 0,0 l/m 0,0 km/h (0 Bft) W-NW 295 0 min 0,000 mm 0,0 UV-I 0 W/m -1,9 C -1,1 C 0,0 km/h (0 Bft)
07.03.2016 05:00 -1,2 C 94 % 1002,4 hPa 0,0 l/m 0,0 km/h (0 Bft) W-NW 295 0 min 0,000 mm 0,0 UV-I 0 W/m -2,0 C -1,2 C 0,0 km/h (0 Bft)
07.03.2016 05:05 -1,2 C 94 % 1002,4 hPa 0,0 l/m 0,0 km/h (0 Bft) W-NW 295 0 min 0,000 mm 0,0 UV-I 0 W/m -2,0 C -1,2 C 0,0 km/h (0 Bft)
07.03.2016 05:10 -1,2 C 94 % 1002,4 hPa 0,0 l/m 0,0 km/h (0 Bft) W-NW 295 0 min 0,000 mm 0,0 UV-I 0 W/m -2,0 C -1,2 C 0,0 km/h (0 Bft)
07.03.2016 05:15 -1,3 C 94 % 1002,4 hPa 0,0 l/m 0,0 km/h (0 Bft) W-NW 295 0 min 0,000 mm 0,0 UV-I 0 W/m -2,1 C -1,3 C 0,0 km/h (0 Bft)
07.03.2016 05:20 -1,2 C 94 % 1002,5 hPa 0,0 l/m 0,0 km/h (0 Bft) W-NW 295 0 min 0,000 mm 0,0 UV-I 0 W/m -2,0 C -1,2 C 0,0 km/h (0 Bft)
07.03.2016 05:25 -1,2 C 95 % 1002,6 hPa 0,0 l/m 0,0 km/h (0 Bft) W-NW 295 0 min 0,000 mm 0,0 UV-I 0 W/m -1,9 C -1,2 C 0,0 km/h (0 Bft)
07.03.2016 05:30 -1,2 C 95 % 1002,7 hPa 0,0 l/m 0,0 km/h (0 Bft) W-NW 295 0 min 0,000 mm 0,0 UV-I 0 W/m -1,9 C -1,2 C 0,0 km/h (0 Bft)
07.03.2016 05:35 -1,1 C 95 % 1002,7 hPa 0,0 l/m 0,0 km/h (0 Bft) W-NW 295 0 min 0,000 mm 0,0 UV-I 0 W/m -1,8 C -1,1 C 0,0 km/h (0 Bft)
07.03.2016 05:40 -1,1 C 95 % 1002,8 hPa 0,0 l/m 0,0 km/h (0 Bft) W-NW 295 0 min 0,000 mm 0,0 UV-I 0 W/m -1,8 C -1,1 C 0,0 km/h (0 Bft)
07.03.2016 05:45 -1,0 C 95 % 1002,8 hPa 0,0 l/m 0,0 km/h (0 Bft) W-NW 295 0 min 0,000 mm 0,0 UV-I 0 W/m -1,7 C -1,0 C 0,0 km/h (0 Bft)
07.03.2016 05:50 -0,9 C 95 % 1002,9 hPa 0,0 l/m 0,0 km/h (0 Bft) W-NW 295 0 min 0,000 mm 0,0 UV-I 0 W/m -1,6 C -0,9 C 0,0 km/h (0 Bft)
07.03.2016 05:55 -0,9 C 95 % 1002,9 hPa 0,0 l/m 0,0 km/h (0 Bft) W-NW 295 0 min 0,000 mm 0,0 UV-I 0 W/m -1,6 C -0,9 C 0,0 km/h (0 Bft)
07.03.2016 06:00 -0,9 C 95 % 1002,9 hPa 0,0 l/m 0,0 km/h (0 Bft) W-NW 295 0 min 0,000 mm 0,0 UV-I 0 W/m -1,6 C -0,9 C 0,0 km/h (0 Bft)
07.03.2016 06:05 -0,9 C 95 % 1002,9 hPa 0,0 l/m 0,0 km/h (0 Bft) W-NW 295 0 min 0,000 mm 0,0 UV-I 0 W/m -1,6 C -0,9 C 0,0 km/h (0 Bft)
07.03.2016 06:10 -0,9 C 95 % 1002,9 hPa 0,0 l/m 0,0 km/h (0 Bft) W-NW 295 0 min 0,000 mm 0,0 UV-I 0 W/m -1,6 C -0,9 C 0,0 km/h (0 Bft)
07.03.2016 06:15 -0,9 C 95 % 1003,0 hPa 0,0 l/m 0,0 km/h (0 Bft) W-NW 295 0 min 0,000 mm 0,0 UV-I 0 W/m -1,6 C -0,9 C 0,0 km/h (0 Bft)
07.03.2016 06:20 -0,8 C 95 % 1002,9 hPa 0,0 l/m 0,0 km/h (0 Bft) W-NW 295 0 min 0,000 mm 0,0 UV-I 0 W/m -1,5 C -0,8 C 0,0 km/h (0 Bft)
07.03.2016 06:25 -0,8 C 95 % 1002,9 hPa 0,0 l/m 0,0 km/h (0 Bft) W-NW 295 0 min 0,000 mm 0,0 UV-I 0 W/m -1,5 C -0,8 C 0,0 km/h (0 Bft)
07.03.2016 06:30 -0,8 C 95 % 1002,9 hPa 0,0 l/m 0,0 km/h (0 Bft) W-NW 295 0 min 0,000 mm 0,0 UV-I 0 W/m -1,5 C -0,8 C 0,0 km/h (0 Bft)
07.03.2016 06:35 -0,7 C 96 % 1002,9 hPa 0,0 l/m 0,0 km/h (0 Bft) W-NW 295 0 min 0,000 mm 0,0 UV-I 0 W/m -1,3 C -0,7 C 0,0 km/h (0 Bft)
07.03.2016 06:40 -0,7 C 96 % 1003,0 hPa 0,0 l/m 0,0 km/h (0 Bft) W-NW 295 0 min 0,000 mm 0,0 UV-I 0 W/m -1,3 C -0,7 C 0,0 km/h (0 Bft)
07.03.2016 06:45 -0,7 C 96 % 1003,1 hPa 0,0 l/m 0,0 km/h (0 Bft) W-NW 295 0 min 0,000 mm 0,0 UV-I 0 W/m -1,3 C -0,7 C 0,0 km/h (0 Bft)
07.03.2016 06:50 -0,6 C 96 % 1003,2 hPa 0,0 l/m 0,0 km/h (0 Bft) W-NW 295 0 min 0,000 mm 0,0 UV-I 0 W/m -1,2 C -0,6 C 0,0 km/h (0 Bft)
07.03.2016 06:55 -0,6 C 96 % 1003,3 hPa 0,0 l/m 0,0 km/h (0 Bft) W-NW 295 0 min 0,000 mm 0,0 UV-I 0 W/m -1,2 C -0,6 C 0,0 km/h (0 Bft)
07.03.2016 07:00 -0,5 C 96 % 1003,3 hPa 0,0 l/m 0,0 km/h (0 Bft) W-NW 295 0 min 0,000 mm 0,0 UV-I 0 W/m -1,1 C -0,5 C 0,0 km/h (0 Bft)
07.03.2016 07:05 -0,5 C 95 % 1003,4 hPa 0,0 l/m 0,0 km/h (0 Bft) W-NW 295 0 min 0,000 mm 0,0 UV-I 0 W/m -1,2 C -0,5 C 0,0 km/h (0 Bft)
07.03.2016 07:10 -0,5 C 95 % 1003,4 hPa 0,0 l/m 0,0 km/h (0 Bft) W-NW 295 0 min 0,000 mm 0,0 UV-I 0 W/m -1,2 C -0,5 C 0,0 km/h (0 Bft)
07.03.2016 07:15 -0,5 C 95 % 1003,5 hPa 0,0 l/m 0,0 km/h (0 Bft) O-NO 78 0 min 0,000 mm 0,0 UV-I 2 W/m -1,2 C -0,5 C 0,0 km/h (0 Bft)
07.03.2016 07:20 -0,5 C 95 % 1003,5 hPa 0,0 l/m 0,0 km/h (0 Bft) O-NO 78 0 min 0,000 mm 0,0 UV-I 6 W/m -1,2 C -0,5 C 0,0 km/h (0 Bft)
07.03.2016 07:25 -0,5 C 95 % 1003,5 hPa 0,0 l/m 0,0 km/h (0 Bft) O-NO 78 0 min 0,000 mm 0,0 UV-I 8 W/m -1,2 C -0,5 C 0,0 km/h (0 Bft)
07.03.2016 07:30 -0,4 C 95 % 1003,6 hPa 0,0 l/m 0,0 km/h (0 Bft) O-NO 78 0 min 0,000 mm 0,0 UV-I 12 W/m -1,1 C -0,4 C 0,0 km/h (0 Bft)
07.03.2016 07:35 -0,4 C 95 % 1003,6 hPa 0,0 l/m 0,0 km/h (0 Bft) O-NO 78 0 min 0,000 mm 0,0 UV-I 12 W/m -1,1 C -0,4 C 0,0 km/h (0 Bft)
07.03.2016 07:40 -0,4 C 96 % 1003,6 hPa 0,0 l/m 0,0 km/h (0 Bft) O-NO 78 0 min 0,000 mm 0,0 UV-I 11 W/m -1,0 C -0,4 C 0,0 km/h (0 Bft)
07.03.2016 07:45 -0,3 C 96 % 1003,7 hPa 0,0 l/m 0,0 km/h (0 Bft) O-NO 78 0 min 0,000 mm 0,0 UV-I 11 W/m -0,9 C -0,3 C 0,0 km/h (0 Bft)
07.03.2016 07:50 -0,3 C 96 % 1003,8 hPa 0,0 l/m 0,0 km/h (0 Bft) O-NO 78 0 min 0,000 mm 0,0 UV-I 12 W/m -0,9 C -0,3 C 0,0 km/h (0 Bft)
07.03.2016 07:55 -0,2 C 95 % 1003,8 hPa 0,0 l/m 0,0 km/h (0 Bft) O-NO 78 0 min 0,000 mm 0,0 UV-I 15 W/m -0,9 C -0,2 C 0,0 km/h (0 Bft)
07.03.2016 08:00 -0,2 C 95 % 1003,8 hPa 0,0 l/m 0,0 km/h (0 Bft) O-NO 78 0 min 0,000 mm 0,0 UV-I 19 W/m -0,9 C -0,2 C 0,0 km/h (0 Bft)
07.03.2016 08:05 -0,1 C 95 % 1003,8 hPa 0,0 l/m 0,0 km/h (0 Bft) O-NO 78 0 min 0,000 mm 0,0 UV-I 26 W/m -0,8 C -0,1 C 0,0 km/h (0 Bft)
07.03.2016 08:10 0,0 C 96 % 1003,8 hPa 0,0 l/m 0,0 km/h (0 Bft) O-NO 78 0 min 0,000 mm 0,0 UV-I 36 W/m -0,6 C 0,0 C 0,0 km/h (0 Bft)
07.03.2016 08:15 0,1 C 95 % 1003,8 hPa 0,0 l/m 0,0 km/h (0 Bft) O-NO 78 0 min 0,000 mm 0,0 UV-I 53 W/m -0,6 C 0,1 C 0,0 km/h (0 Bft)
07.03.2016 08:20 0,1 C 95 % 1003,8 hPa 0,0 l/m 0,0 km/h (0 Bft) O-NO 78 0 min 0,000 mm 0,0 UV-I 60 W/m -0,6 C 0,1 C 0,0 km/h (0 Bft)
07.03.2016 08:25 0,1 C 95 % 1003,9 hPa 0,0 l/m 0,0 km/h (0 Bft) O-NO 78 0 min 0,000 mm 0,0 UV-I 63 W/m -0,6 C 0,1 C 0,0 km/h (0 Bft)
07.03.2016 08:30 0,1 C 95 % 1003,8 hPa 0,0 l/m 0,0 km/h (0 Bft) O-NO 78 0 min 0,000 mm 0,0 UV-I 67 W/m -0,6 C 0,1 C 0,0 km/h (0 Bft)
07.03.2016 08:35 0,1 C 95 % 1003,8 hPa 0,0 l/m 0,0 km/h (0 Bft) O-NO 78 0 min 0,000 mm 0,0 UV-I 74 W/m -0,6 C 0,1 C 0,0 km/h (0 Bft)
07.03.2016 08:40 0,1 C 95 % 1003,9 hPa 0,0 l/m 0,0 km/h (0 Bft) O-NO 78 0 min 0,000 mm 0,0 UV-I 83 W/m -0,6 C 0,1 C 0,0 km/h (0 Bft)
07.03.2016 08:45 0,1 C 95 % 1003,9 hPa 0,0 l/m 0,0 km/h (0 Bft) O-NO 78 0 min 0,000 mm 0,0 UV-I 85 W/m -0,6 C 0,1 C 0,0 km/h (0 Bft)
07.03.2016 08:50 0,1 C 95 % 1004,0 hPa 0,0 l/m 0,0 km/h (0 Bft) O 101 0 min 0,000 mm 0,0 UV-I 85 W/m -0,6 C 0,1 C 0,0 km/h (0 Bft)
07.03.2016 08:55 0,1 C 95 % 1004,0 hPa 0,0 l/m 0,1 km/h (0 Bft) O-NO 76 0 min 0,000 mm 0,1 UV-I 84 W/m -0,6 C 0,1 C 1,6 km/h (1 Bft)
07.03.2016 09:00 0,1 C 95 % 1004,0 hPa 0,0 l/m 0,0 km/h (0 Bft) O-NO 76 0 min 0,000 mm 0,5 UV-I 107 W/m -0,6 C 0,1 C 0,0 km/h (0 Bft)
07.03.2016 09:05 0,2 C 96 % 1004,0 hPa 0,0 l/m 0,0 km/h (0 Bft) O-NO 76 0 min 0,025 mm 0,5 UV-I 105 W/m -0,4 C 0,2 C 0,0 km/h (0 Bft)
07.03.2016 09:10 0,3 C 95 % 1004,1 hPa 0,0 l/m 0,0 km/h (0 Bft) O-NO 76 0 min 0,000 mm 0,6 UV-I 119 W/m -0,4 C 0,3 C 0,0 km/h (0 Bft)
07.03.2016 09:15 0,4 C 95 % 1004,1 hPa 0,0 l/m 0,0 km/h (0 Bft) O-NO 76 0 min 0,000 mm 0,6 UV-I 127 W/m -0,3 C 0,4 C 0,0 km/h (0 Bft)
07.03.2016 09:20 0,4 C 95 % 1004,1 hPa 0,0 l/m 0,0 km/h (0 Bft) O-NO 76 0 min 0,000 mm 0,6 UV-I 124 W/m -0,3 C 0,4 C 0,0 km/h (0 Bft)
07.03.2016 09:25 0,6 C 95 % 1004,1 hPa 0,0 l/m 0,0 km/h (0 Bft) O-NO 76 0 min 0,000 mm 0,6 UV-I 136 W/m -0,1 C 0,6 C 0,0 km/h (0 Bft)
07.03.2016 09:30 0,7 C 95 % 1004,1 hPa 0,0 l/m 0,0 km/h (0 Bft) O-NO 76 0 min 0,000 mm 0,7 UV-I 141 W/m -0,0 C 0,7 C 0,0 km/h (0 Bft)
07.03.2016 09:35 0,9 C 95 % 1004,1 hPa 0,0 l/m 0,0 km/h (0 Bft) O-NO 76 0 min 0,000 mm 0,6 UV-I 139 W/m 0,2 C 0,9 C 0,0 km/h (0 Bft)
07.03.2016 09:40 1,0 C 95 % 1004,2 hPa 0,0 l/m 0,0 km/h (0 Bft) O-NO 76 0 min 0,000 mm 0,6 UV-I 139 W/m 0,3 C 1,0 C 0,0 km/h (0 Bft)
07.03.2016 09:45 1,2 C 94 % 1004,2 hPa 0,0 l/m 0,0 km/h (0 Bft) O-NO 76 0 min 0,000 mm 0,7 UV-I 206 W/m 0,3 C 1,2 C 0,0 km/h (0 Bft)
07.03.2016 09:50 1,5 C 94 % 1004,2 hPa 0,0 l/m 0,0 km/h (0 Bft) O-NO 76 5 min 0,000 mm 0,8 UV-I 280 W/m 0,6 C 1,5 C 0,0 km/h (0 Bft)
07.03.2016 09:55 1,8 C 94 % 1004,1 hPa 0,0 l/m 0,0 km/h (0 Bft) N-NO 29 5 min 0,000 mm 0,8 UV-I 272 W/m 0,9 C 1,8 C 0,0 km/h (0 Bft)
07.03.2016 10:00 1,9 C 94 % 1004,2 hPa 0,0 l/m 0,0 km/h (0 Bft) N-NO 29 0 min 0,000 mm 0,8 UV-I 231 W/m 1,0 C 1,9 C 0,0 km/h (0 Bft)
07.03.2016 10:05 1,9 C 93 % 1004,2 hPa 0,0 l/m 0,0 km/h (0 Bft) N-NO 29 0 min 0,051 mm 0,8 UV-I 204 W/m 0,9 C 1,9 C 0,0 km/h (0 Bft)
07.03.2016 10:10 2,1 C 93 % 1004,3 hPa 0,0 l/m 0,0 km/h (0 Bft) N-NO 29 0 min 0,000 mm 0,7 UV-I 175 W/m 1,1 C 2,1 C 0,0 km/h (0 Bft)
07.03.2016 10:15 2,1 C 93 % 1004,3 hPa 0,0 l/m 1,2 km/h (1 Bft) NO 53 0 min 0,000 mm 0,7 UV-I 157 W/m 1,1 C 2,1 C 4,8 km/h (1 Bft)
07.03.2016 10:20 1,9 C 93 % 1004,3 hPa 0,0 l/m 2,4 km/h (1 Bft) NO 46 0 min 0,000 mm 0,8 UV-I 179 W/m 0,9 C 1,9 C 4,8 km/h (1 Bft)
07.03.2016 10:25 1,7 C 93 % 1004,3 hPa 0,0 l/m 2,1 km/h (1 Bft) NO 52 0 min 0,000 mm 0,8 UV-I 176 W/m 0,7 C 1,7 C 6,4 km/h (2 Bft)
07.03.2016 10:30 1,7 C 94 % 1004,3 hPa 0,0 l/m 1,6 km/h (1 Bft) O-NO 67 0 min 0,000 mm 0,7 UV-I 153 W/m 0,8 C 1,7 C 6,4 km/h (2 Bft)
07.03.2016 10:35 1,7 C 94 % 1004,3 hPa 0,0 l/m 0,0 km/h (0 Bft) NO 36 0 min 0,000 mm 0,8 UV-I 178 W/m 0,8 C 1,7 C 0,0 km/h (0 Bft)
07.03.2016 10:40 1,8 C 94 % 1004,3 hPa 0,0 l/m 0,8 km/h (0 Bft) O-NO 74 0 min 0,000 mm 0,8 UV-I 198 W/m 0,9 C 1,8 C 4,8 km/h (1 Bft)
07.03.2016 10:45 1,9 C 94 % 1004,4 hPa 0,0 l/m 0,4 km/h (0 Bft) NO 51 0 min 0,000 mm 0,9 UV-I 234 W/m 1,0 C 1,9 C 4,8 km/h (1 Bft)
07.03.2016 10:50 2,2 C 94 % 1004,4 hPa 0,0 l/m 0,9 km/h (0 Bft) O 88 0 min 0,000 mm 0,8 UV-I 161 W/m 1,3 C 2,2 C 4,8 km/h (1 Bft)
07.03.2016 10:55 2,0 C 93 % 1004,3 hPa 0,0 l/m 0,4 km/h (0 Bft) O-SO 117 0 min 0,000 mm 0,7 UV-I 139 W/m 1,0 C 2,0 C 4,8 km/h (1 Bft)
07.03.2016 11:00 2,1 C 94 % 1004,3 hPa 0,0 l/m 0,0 km/h (0 Bft) O-SO 111 0 min 0,051 mm 0,8 UV-I 156 W/m 1,2 C 2,1 C 0,0 km/h (0 Bft)
07.03.2016 11:05 2,3 C 94 % 1004,4 hPa 0,0 l/m 0,0 km/h (0 Bft) O-SO 123 0 min 0,000 mm 0,7 UV-I 129 W/m 1,4 C 2,3 C 0,0 km/h (0 Bft)
07.03.2016 11:10 2,2 C 92 % 1004,4 hPa 0,0 l/m 0,0 km/h (0 Bft) O-SO 123 0 min 0,000 mm 0,6 UV-I 104 W/m 1,0 C 2,2 C 0,0 km/h (0 Bft)
07.03.2016 11:15 2,2 C 92 % 1004,4 hPa 0,0 l/m 0,0 km/h (0 Bft) O-NO 66 0 min 0,000 mm 0,5 UV-I 89 W/m 1,0 C 2,2 C 0,0 km/h (0 Bft)
07.03.2016 11:20 2,2 C 93 % 1004,3 hPa 0,0 l/m 0,4 km/h (0 Bft) O-NO 61 0 min 0,000 mm 0,5 UV-I 83 W/m 1,2 C 2,2 C 3,2 km/h (1 Bft)
07.03.2016 11:25 2,2 C 93 % 1004,4 hPa 0,0 l/m 0,0 km/h (0 Bft) O-NO 61 0 min 0,000 mm 0,7 UV-I 102 W/m 1,2 C 2,2 C 0,0 km/h (0 Bft)
07.03.2016 11:30 2,2 C 93 % 1004,3 hPa 0,0 l/m 0,0 km/h (0 Bft) NO 40 0 min 0,000 mm 0,8 UV-I 144 W/m 1,2 C 2,2 C 0,0 km/h (0 Bft)
07.03.2016 11:35 2,1 C 91 % 1004,4 hPa 0,0 l/m 0,0 km/h (0 Bft) SO 145 0 min 0,000 mm 1,0 UV-I 224 W/m 0,8 C 2,1 C 0,0 km/h (0 Bft)
07.03.2016 11:40 2,4 C 91 % 1004,4 hPa 0,0 l/m 0,3 km/h (0 Bft) O-NO 67 5 min 0,000 mm 1,3 UV-I 306 W/m 1,1 C 2,4 C 3,2 km/h (1 Bft)
07.03.2016 11:45 2,6 C 91 % 1004,4 hPa 0,0 l/m 0,3 km/h (0 Bft) O-SO 115 0 min 0,000 mm 1,3 UV-I 286 W/m 1,3 C 2,6 C 3,2 km/h (1 Bft)
07.03.2016 11:50 3,3 C 94 % 1004,4 hPa 0,0 l/m 0,0 km/h (0 Bft) NO 51 0 min 0,000 mm 1,3 UV-I 288 W/m 2,4 C 3,3 C 1,6 km/h (1 Bft)
07.03.2016 11:55 3,7 C 90 % 1004,5 hPa 0,0 l/m 0,0 km/h (0 Bft) O 81 0 min 0,000 mm 1,3 UV-I 282 W/m 2,2 C 3,7 C 0,0 km/h (0 Bft)
07.03.2016 12:00 3,1 C 86 % 1004,4 hPa 0,0 l/m 0,0 km/h (0 Bft) O-SO 104 0 min 0,000 mm 1,3 UV-I 286 W/m 1,0 C 3,1 C 0,0 km/h (0 Bft)
07.03.2016 12:05 3,2 C 88 % 1004,4 hPa 0,0 l/m 0,2 km/h (0 Bft) S 175 0 min 0,076 mm 1,2 UV-I 256 W/m 1,4 C 3,2 C 4,8 km/h (1 Bft)
07.03.2016 12:10 2,9 C 87 % 1004,4 hPa 0,0 l/m 0,4 km/h (0 Bft) SO 145 0 min 0,000 mm 1,1 UV-I 259 W/m 1,0 C 2,9 C 4,8 km/h (1 Bft)
07.03.2016 12:15 2,9 C 86 % 1004,4 hPa 0,0 l/m 0,0 km/h (0 Bft) SO 145 0 min 0,000 mm 1,1 UV-I 191 W/m 0,8 C 2,9 C 0,0 km/h (0 Bft)
07.03.2016 12:20 3,1 C 86 % 1004,5 hPa 0,0 l/m 0,0 km/h (0 Bft) W-SW 239 0 min 0,000 mm 1,0 UV-I 167 W/m 1,0 C 3,1 C 0,0 km/h (0 Bft)
07.03.2016 12:25 3,3 C 87 % 1004,5 hPa 0,0 l/m 0,0 km/h (0 Bft) W-SW 239 0 min 0,000 mm 1,0 UV-I 155 W/m 1,3 C 3,3 C 0,0 km/h (0 Bft)
07.03.2016 12:30 3,6 C 87 % 1004,4 hPa 0,0 l/m 0,0 km/h (0 Bft) W-SW 239 0 min 0,000 mm 1,0 UV-I 140 W/m 1,6 C 3,6 C 0,0 km/h (0 Bft)
07.03.2016 12:35 3,7 C 86 % 1004,4 hPa 0,0 l/m 0,0 km/h (0 Bft) NO 42 0 min 0,000 mm 1,0 UV-I 117 W/m 1,6 C 3,7 C 0,0 km/h (0 Bft)
07.03.2016 12:40 3,7 C 82 % 1004,5 hPa 0,0 l/m 0,0 km/h (0 Bft) NO 42 0 min 0,000 mm 0,9 UV-I 94 W/m 0,9 C 3,7 C 0,0 km/h (0 Bft)
07.03.2016 12:45 3,7 C 85 % 1004,4 hPa 0,0 l/m 0,0 km/h (0 Bft) NO 42 0 min 0,000 mm 0,8 UV-I 85 W/m 1,4 C 3,7 C 0,0 km/h (0 Bft)
07.03.2016 12:50 3,7 C 82 % 1004,4 hPa 0,0 l/m 0,0 km/h (0 Bft) NO 42 0 min 0,000 mm 0,8 UV-I 84 W/m 0,9 C 3,7 C 0,0 km/h (0 Bft)
07.03.2016 12:55 3,5 C 82 % 1004,4 hPa 0,0 l/m 0,0 km/h (0 Bft) NO 42 0 min 0,000 mm 0,8 UV-I 85 W/m 0,7 C 3,5 C 0,0 km/h (0 Bft)
07.03.2016 13:00 3,5 C 83 % 1004,4 hPa 0,0 l/m 0,0 km/h (0 Bft) NO 42 0 min 0,000 mm 0,9 UV-I 97 W/m 0,9 C 3,5 C 0,0 km/h (0 Bft)
07.03.2016 13:05 3,4 C 84 % 1004,4 hPa 0,0 l/m 0,0 km/h (0 Bft) NO 42 0 min 0,051 mm 0,9 UV-I 113 W/m 1,0 C 3,4 C 0,0 km/h (0 Bft)
07.03.2016 13:10 3,6 C 86 % 1004,4 hPa 0,0 l/m 0,0 km/h (0 Bft) NO 42 0 min 0,000 mm 0,9 UV-I 128 W/m 1,5 C 3,6 C 0,0 km/h (0 Bft)
07.03.2016 13:15 3,6 C 85 % 1004,4 hPa 0,0 l/m 0,0 km/h (0 Bft) NO 42 0 min 0,000 mm 0,9 UV-I 140 W/m 1,3 C 3,6 C 0,0 km/h (0 Bft)
07.03.2016 13:20 3,7 C 84 % 1004,3 hPa 0,0 l/m 0,0 km/h (0 Bft) NO 42 0 min 0,000 mm 0,9 UV-I 149 W/m 1,3 C 3,7 C 0,0 km/h (0 Bft)
07.03.2016 13:25 3,7 C 84 % 1004,3 hPa 0,0 l/m 0,0 km/h (0 Bft) O-NO 72 0 min 0,000 mm 0,9 UV-I 155 W/m 1,3 C 3,7 C 0,0 km/h (0 Bft)
07.03.2016 13:30 3,7 C 84 % 1004,4 hPa 0,0 l/m 0,0 km/h (0 Bft) O-NO 72 0 min 0,000 mm 0,8 UV-I 161 W/m 1,3 C 3,7 C 0,0 km/h (0 Bft)
07.03.2016 13:35 3,8 C 84 % 1004,4 hPa 0,0 l/m 0,0 km/h (0 Bft) S 185 0 min 0,000 mm 0,8 UV-I 169 W/m 1,4 C 3,8 C 0,0 km/h (0 Bft)
07.03.2016 13:40 3,9 C 84 % 1004,4 hPa 0,0 l/m 0,4 km/h (0 Bft) SW 215 0 min 0,000 mm 0,8 UV-I 184 W/m 1,4 C 3,9 C 4,8 km/h (1 Bft)
07.03.2016 13:45 3,6 C 84 % 1004,4 hPa 0,0 l/m 1,8 km/h (1 Bft) SO 135 0 min 0,000 mm 0,8 UV-I 187 W/m 1,2 C 3,6 C 4,8 km/h (1 Bft)
07.03.2016 13:50 3,4 C 86 % 1004,4 hPa 0,0 l/m 0,3 km/h (0 Bft) S-SW 196 0 min 0,000 mm 0,8 UV-I 152 W/m 1,3 C 3,4 C 4,8 km/h (1 Bft)
07.03.2016 13:55 3,3 C 82 % 1004,5 hPa 0,0 l/m 2,0 km/h (1 Bft) O 100 0 min 0,000 mm 0,7 UV-I 121 W/m 0,5 C 3,3 C 6,4 km/h (2 Bft)
07.03.2016 14:00 3,0 C 83 % 1004,4 hPa 0,0 l/m 2,3 km/h (1 Bft) NO 48 0 min 0,000 mm 0,7 UV-I 132 W/m 0,4 C 3,0 C 6,4 km/h (2 Bft)
07.03.2016 14:05 3,1 C 87 % 1004,4 hPa 0,0 l/m 0,2 km/h (0 Bft) NW 314 0 min 0,051 mm 0,8 UV-I 163 W/m 1,2 C 3,1 C 4,8 km/h (1 Bft)
07.03.2016 14:10 3,2 C 88 % 1004,4 hPa 0,0 l/m 0,8 km/h (0 Bft) W-NW 282 0 min 0,000 mm 0,9 UV-I 151 W/m 1,4 C 3,2 C 6,4 km/h (2 Bft)
07.03.2016 14:15 3,3 C 88 % 1004,4 hPa 0,0 l/m 0,9 km/h (0 Bft) W-NW 301 0 min 0,000 mm 0,8 UV-I 137 W/m 1,5 C 3,3 C 4,8 km/h (1 Bft)
07.03.2016 14:20 3,4 C 88 % 1004,5 hPa 0,0 l/m 0,3 km/h (0 Bft) W-NW 302 0 min 0,000 mm 0,8 UV-I 143 W/m 1,6 C 3,4 C 4,8 km/h (1 Bft)
07.03.2016 14:25 3,5 C 89 % 1004,5 hPa 0,0 l/m 0,0 km/h (0 Bft) NW 305 0 min 0,000 mm 0,8 UV-I 145 W/m 1,9 C 3,5 C 0,0 km/h (0 Bft)
07.03.2016 14:30 3,4 C 87 % 1004,5 hPa 0,0 l/m 0,0 km/h (0 Bft) NW 305 0 min 0,000 mm 0,8 UV-I 144 W/m 1,4 C 3,4 C 1,6 km/h (1 Bft)
07.03.2016 14:35 3,4 C 87 % 1004,5 hPa 0,0 l/m 0,0 km/h (0 Bft) NW 305 0 min 0,000 mm 0,8 UV-I 146 W/m 1,4 C 3,4 C 0,0 km/h (0 Bft)
07.03.2016 14:40 3,3 C 88 % 1004,5 hPa 0,0 l/m 0,0 km/h (0 Bft) NW 305 0 min 0,000 mm 0,8 UV-I 142 W/m 1,5 C 3,3 C 0,0 km/h (0 Bft)
07.03.2016 14:45 3,3 C 88 % 1004,6 hPa 0,0 l/m 0,1 km/h (0 Bft) W 259 0 min 0,000 mm 0,8 UV-I 142 W/m 1,5 C 3,3 C 3,2 km/h (1 Bft)
07.03.2016 14:50 3,2 C 88 % 1004,6 hPa 0,0 l/m 0,3 km/h (0 Bft) W 271 0 min 0,000 mm 0,8 UV-I 150 W/m 1,4 C 3,2 C 4,8 km/h (1 Bft)
07.03.2016 14:55 3,0 C 88 % 1004,6 hPa 0,0 l/m 0,0 km/h (0 Bft) W-SW 258 0 min 0,000 mm 0,8 UV-I 168 W/m 1,2 C 3,0 C 1,6 km/h (1 Bft)
07.03.2016 15:00 2,9 C 88 % 1004,6 hPa 0,0 l/m 1,3 km/h (1 Bft) W-SW 243 0 min 0,000 mm 0,8 UV-I 214 W/m 1,1 C 2,9 C 8,0 km/h (2 Bft)
07.03.2016 15:05 3,1 C 88 % 1004,6 hPa 0,0 l/m 0,0 km/h (0 Bft) W 281 5 min 0,051 mm 0,9 UV-I 278 W/m 1,3 C 3,1 C 0,0 km/h (0 Bft)
07.03.2016 15:10 3,8 C 88 % 1004,6 hPa 0,0 l/m 0,1 km/h (0 Bft) W 281 5 min 0,000 mm 0,9 UV-I 306 W/m 2,0 C 3,8 C 1,6 km/h (1 Bft)
07.03.2016 15:15 3,8 C 89 % 1004,7 hPa 0,0 l/m 1,0 km/h (0 Bft) S-SW 195 5 min 0,000 mm 0,9 UV-I 339 W/m 2,2 C 3,8 C 6,4 km/h (2 Bft)
07.03.2016 15:20 4,3 C 87 % 1004,7 hPa 0,0 l/m 0,3 km/h (0 Bft) W 259 5 min 0,000 mm 1,0 UV-I 382 W/m 2,3 C 4,3 C 4,8 km/h (1 Bft)
07.03.2016 15:25 4,7 C 83 % 1004,6 hPa 0,0 l/m 0,7 km/h (0 Bft) W-SW 244 5 min 0,000 mm 1,0 UV-I 388 W/m 2,1 C 4,7 C 6,4 km/h (2 Bft)
07.03.2016 15:30 5,5 C 80 % 1004,7 hPa 0,0 l/m 0,1 km/h (0 Bft) W-NW 300 5 min 0,000 mm 0,9 UV-I 404 W/m 2,3 C 5,5 C 6,4 km/h (2 Bft)
07.03.2016 15:35 5,4 C 79 % 1004,7 hPa 0,0 l/m 0,4 km/h (0 Bft) S 169 5 min 0,000 mm 0,9 UV-I 420 W/m 2,1 C 5,4 C 4,8 km/h (1 Bft)
07.03.2016 15:40 5,2 C 80 % 1004,7 hPa 0,0 l/m 1,3 km/h (1 Bft) W-NW 293 5 min 0,000 mm 0,8 UV-I 305 W/m 2,0 C 5,2 C 6,4 km/h (2 Bft)
07.03.2016 15:45 4,9 C 82 % 1004,8 hPa 0,0 l/m 2,1 km/h (1 Bft) W-NW 298 0 min 0,000 mm 0,7 UV-I 150 W/m 2,1 C 4,9 C 8,0 km/h (2 Bft)
07.03.2016 15:50 4,4 C 79 % 1004,8 hPa 0,0 l/m 0,9 km/h (0 Bft) W-NW 298 5 min 0,000 mm 0,7 UV-I 244 W/m 1,1 C 4,4 C 3,2 km/h (1 Bft)
07.03.2016 15:55 4,4 C 84 % 1004,8 hPa 0,0 l/m 0,0 km/h (0 Bft) W-NW 298 0 min 0,000 mm 0,7 UV-I 148 W/m 1,9 C 4,4 C 0,0 km/h (0 Bft)
07.03.2016 16:00 4,4 C 80 % 1004,8 hPa 0,0 l/m 0,0 km/h (0 Bft) W-NW 298 0 min 0,000 mm 0,6 UV-I 140 W/m 1,3 C 4,4 C 0,0 km/h (0 Bft)
07.03.2016 16:05 4,3 C 81 % 1004,8 hPa 0,0 l/m 0,3 km/h (0 Bft) W-NW 298 0 min 0,101 mm 0,6 UV-I 127 W/m 1,3 C 4,3 C 1,6 km/h (1 Bft)
07.03.2016 16:10 4,2 C 82 % 1004,9 hPa 0,0 l/m 0,0 km/h (0 Bft) W-NW 298 0 min 0,000 mm 0,5 UV-I 107 W/m 1,4 C 4,2 C 0,0 km/h (0 Bft)
07.03.2016 16:15 4,1 C 83 % 1004,9 hPa 0,0 l/m 0,0 km/h (0 Bft) W-NW 298 0 min 0,000 mm 0,2 UV-I 91 W/m 1,5 C 4,1 C 0,0 km/h (0 Bft)
07.03.2016 16:20 4,1 C 84 % 1005,0 hPa 0,0 l/m 0,0 km/h (0 Bft) W-SW 250 0 min 0,000 mm 0,0 UV-I 89 W/m 1,6 C 4,1 C 0,0 km/h (0 Bft)
07.03.2016 16:25 4,2 C 83 % 1005,0 hPa 0,0 l/m 0,0 km/h (0 Bft) SO 135 0 min 0,000 mm 0,0 UV-I 76 W/m 1,6 C 4,2 C 0,0 km/h (0 Bft)
07.03.2016 16:30 4,1 C 83 % 1005,0 hPa 0,0 l/m 0,0 km/h (0 Bft) S-SW 192 0 min 0,000 mm 0,0 UV-I 68 W/m 1,5 C 4,1 C 0,0 km/h (0 Bft)
07.03.2016 16:35 3,9 C 85 % 1005,1 hPa 0,0 l/m 0,0 km/h (0 Bft) S-SW 196 0 min 0,000 mm 0,0 UV-I 65 W/m 1,6 C 3,9 C 0,0 km/h (0 Bft)
07.03.2016 16:40 3,9 C 85 % 1005,1 hPa 0,0 l/m 0,0 km/h (0 Bft) S-SW 196 0 min 0,000 mm 0,0 UV-I 61 W/m 1,6 C 3,9 C 0,0 km/h (0 Bft)
07.03.2016 16:45 3,8 C 85 % 1005,2 hPa 0,0 l/m 0,0 km/h (0 Bft) S-SW 192 0 min 0,000 mm 0,0 UV-I 53 W/m 1,5 C 3,8 C 0,0 km/h (0 Bft)
07.03.2016 16:50 3,7 C 85 % 1005,2 hPa 0,0 l/m 0,0 km/h (0 Bft) S-SW 192 0 min 0,000 mm 0,0 UV-I 41 W/m 1,4 C 3,7 C 0,0 km/h (0 Bft)
07.03.2016 16:55 3,7 C 85 % 1005,2 hPa 0,0 l/m 0,0 km/h (0 Bft) S-SW 192 0 min 0,000 mm 0,0 UV-I 39 W/m 1,4 C 3,7 C 0,0 km/h (0 Bft)
07.03.2016 17:00 3,7 C 86 % 1005,3 hPa 0,0 l/m 0,0 km/h (0 Bft) S-SW 192 0 min 0,000 mm 0,0 UV-I 40 W/m 1,6 C 3,7 C 0,0 km/h (0 Bft)
07.03.2016 17:05 3,6 C 86 % 1005,3 hPa 0,0 l/m 0,0 km/h (0 Bft) S-SW 192 0 min 0,026 mm 0,0 UV-I 36 W/m 1,5 C 3,6 C 0,0 km/h (0 Bft)
07.03.2016 17:10 3,5 C 86 % 1005,4 hPa 0,0 l/m 0,0 km/h (0 Bft) S-SW 192 0 min 0,000 mm 0,0 UV-I 32 W/m 1,4 C 3,5 C 0,0 km/h (0 Bft)
07.03.2016 17:15 3,4 C 87 % 1005,4 hPa 0,0 l/m 0,0 km/h (0 Bft) S-SW 192 0 min 0,000 mm 0,0 UV-I 30 W/m 1,4 C 3,4 C 0,0 km/h (0 Bft)
07.03.2016 17:20 3,4 C 87 % 1005,6 hPa 0,0 l/m 0,0 km/h (0 Bft) S-SW 192 0 min 0,000 mm 0,0 UV-I 29 W/m 1,4 C 3,4 C 0,0 km/h (0 Bft)
07.03.2016 17:25 3,4 C 86 % 1005,7 hPa 0,0 l/m 0,0 km/h (0 Bft) S-SW 192 0 min 0,000 mm 0,0 UV-I 26 W/m 1,3 C 3,4 C 0,0 km/h (0 Bft)
07.03.2016 17:30 3,2 C 86 % 1005,7 hPa 0,0 l/m 0,0 km/h (0 Bft) S-SW 192 0 min 0,000 mm 0,0 UV-I 25 W/m 1,1 C 3,2 C 0,0 km/h (0 Bft)
07.03.2016 17:35 3,2 C 87 % 1005,8 hPa 0,0 l/m 0,0 km/h (0 Bft) S-SW 192 0 min 0,000 mm 0,0 UV-I 25 W/m 1,2 C 3,2 C 0,0 km/h (0 Bft)
07.03.2016 17:40 3,1 C 87 % 1005,8 hPa 0,0 l/m 0,0 km/h (0 Bft) S-SW 192 0 min 0,000 mm 0,0 UV-I 24 W/m 1,2 C 3,1 C 0,0 km/h (0 Bft)
07.03.2016 17:45 2,9 C 87 % 1005,8 hPa 0,0 l/m 0,0 km/h (0 Bft) S-SW 192 0 min 0,000 mm 0,0 UV-I 22 W/m 1,0 C 2,9 C 0,0 km/h (0 Bft)
07.03.2016 17:50 2,8 C 88 % 1005,9 hPa 0,0 l/m 0,0 km/h (0 Bft) NW 320 0 min 0,000 mm 0,0 UV-I 19 W/m 1,0 C 2,8 C 0,0 km/h (0 Bft)
07.03.2016 17:55 2,7 C 88 % 1006,0 hPa 0,0 l/m 0,0 km/h (0 Bft) NW 320 0 min 0,000 mm 0,0 UV-I 17 W/m 0,9 C 2,7 C 0,0 km/h (0 Bft)
07.03.2016 18:00 2,6 C 88 % 1006,0 hPa 0,0 l/m 0,0 km/h (0 Bft) NW 320 0 min 0,000 mm 0,0 UV-I 14 W/m 0,8 C 2,6 C 0,0 km/h (0 Bft)
07.03.2016 18:05 2,4 C 88 % 1006,1 hPa 0,0 l/m 0,0 km/h (0 Bft) NW 320 0 min 0,000 mm 0,0 UV-I 11 W/m 0,6 C 2,4 C 0,0 km/h (0 Bft)
07.03.2016 18:10 2,2 C 88 % 1006,2 hPa 0,0 l/m 0,0 km/h (0 Bft) NW 320 0 min 0,000 mm 0,0 UV-I 9 W/m 0,4 C 2,2 C 0,0 km/h (0 Bft)
07.03.2016 18:15 2,0 C 89 % 1006,3 hPa 0,0 l/m 0,0 km/h (0 Bft) NW 320 0 min 0,000 mm 0,0 UV-I 6 W/m 0,4 C 2,0 C 0,0 km/h (0 Bft)
07.03.2016 18:20 1,9 C 89 % 1006,3 hPa 0,0 l/m 0,0 km/h (0 Bft) NW 320 0 min 0,000 mm 0,0 UV-I 3 W/m 0,3 C 1,9 C 0,0 km/h (0 Bft)
07.03.2016 18:25 1,8 C 89 % 1006,4 hPa 0,0 l/m 0,0 km/h (0 Bft) NW 320 0 min 0,000 mm 0,0 UV-I 0 W/m 0,2 C 1,8 C 0,0 km/h (0 Bft)
07.03.2016 18:30 1,6 C 89 % 1006,4 hPa 0,0 l/m 0,0 km/h (0 Bft) NW 320 0 min 0,000 mm 0,0 UV-I 0 W/m -0,0 C 1,6 C 0,0 km/h (0 Bft)
07.03.2016 18:35 1,4 C 89 % 1006,4 hPa 0,0 l/m 0,0 km/h (0 Bft) NW 320 0 min 0,000 mm 0,0 UV-I 0 W/m -0,2 C 1,4 C 0,0 km/h (0 Bft)
07.03.2016 18:40 1,3 C 90 % 1006,5 hPa 0,0 l/m 0,0 km/h (0 Bft) NW 320 0 min 0,000 mm 0,0 UV-I 0 W/m -0,2 C 1,3 C 0,0 km/h (0 Bft)
07.03.2016 18:45 1,2 C 90 % 1006,6 hPa 0,0 l/m 0,0 km/h (0 Bft) NW 320 0 min 0,000 mm 0,0 UV-I 0 W/m -0,3 C 1,2 C 0,0 km/h (0 Bft)
07.03.2016 18:50 1,0 C 90 % 1006,7 hPa 0,0 l/m 0,0 km/h (0 Bft) NW 320 0 min 0,000 mm 0,0 UV-I 0 W/m -0,5 C 1,0 C 0,0 km/h (0 Bft)
07.03.2016 18:55 0,9 C 90 % 1006,7 hPa 0,0 l/m 0,0 km/h (0 Bft) NW 320 0 min 0,000 mm 0,0 UV-I 0 W/m -0,6 C 0,9 C 0,0 km/h (0 Bft)
07.03.2016 19:00 0,8 C 90 % 1006,9 hPa 0,0 l/m 0,0 km/h (0 Bft) NW 320 0 min 0,000 mm 0,0 UV-I 0 W/m -0,6 C 0,8 C 0,0 km/h (0 Bft)
07.03.2016 19:05 0,7 C 90 % 1006,9 hPa 0,0 l/m 0,0 km/h (0 Bft) NW 320 0 min 0,000 mm 0,0 UV-I 0 W/m -0,7 C 0,7 C 0,0 km/h (0 Bft)
07.03.2016 19:10 0,6 C 90 % 1006,9 hPa 0,0 l/m 0,0 km/h (0 Bft) NW 320 0 min 0,000 mm 0,0 UV-I 0 W/m -0,8 C 0,6 C 0,0 km/h (0 Bft)
07.03.2016 19:15 0,4 C 90 % 1007,1 hPa 0,0 l/m 0,0 km/h (0 Bft) NW 320 0 min 0,000 mm 0,0 UV-I 0 W/m -1,0 C 0,4 C 0,0 km/h (0 Bft)
07.03.2016 19:20 0,3 C 91 % 1007,2 hPa 0,0 l/m 0,0 km/h (0 Bft) NW 320 0 min 0,000 mm 0,0 UV-I 0 W/m -1,0 C 0,3 C 0,0 km/h (0 Bft)
07.03.2016 19:25 0,3 C 91 % 1007,2 hPa 0,0 l/m 0,0 km/h (0 Bft) NW 320 0 min 0,000 mm 0,0 UV-I 0 W/m -1,0 C 0,3 C 0,0 km/h (0 Bft)
07.03.2016 19:30 0,2 C 92 % 1007,2 hPa 0,0 l/m 0,0 km/h (0 Bft) W-SW 246 0 min 0,000 mm 0,0 UV-I 0 W/m -0,9 C 0,2 C 0,0 km/h (0 Bft)
07.03.2016 19:35 0,2 C 92 % 1007,3 hPa 0,0 l/m 0,0 km/h (0 Bft) W-SW 246 0 min 0,000 mm 0,0 UV-I 0 W/m -0,9 C 0,2 C 0,0 km/h (0 Bft)
07.03.2016 19:40 0,2 C 93 % 1007,3 hPa 0,0 l/m 0,0 km/h (0 Bft) W-SW 246 0 min 0,000 mm 0,0 UV-I 0 W/m -0,8 C 0,2 C 0,0 km/h (0 Bft)
07.03.2016 19:45 0,2 C 93 % 1007,5 hPa 0,0 l/m 0,0 km/h (0 Bft) W-SW 246 0 min 0,000 mm 0,0 UV-I 0 W/m -0,8 C 0,2 C 0,0 km/h (0 Bft)
07.03.2016 19:50 0,2 C 93 % 1007,6 hPa 0,0 l/m 0,0 km/h (0 Bft) W-SW 246 0 min 0,000 mm 0,0 UV-I 0 W/m -0,8 C 0,2 C 0,0 km/h (0 Bft)
07.03.2016 19:55 0,2 C 93 % 1007,6 hPa 0,0 l/m 0,0 km/h (0 Bft) W-SW 246 0 min 0,000 mm 0,0 UV-I 0 W/m -0,8 C 0,2 C 0,0 km/h (0 Bft)
07.03.2016 20:00 0,2 C 94 % 1007,7 hPa 0,0 l/m 0,0 km/h (0 Bft) W-SW 246 0 min 0,000 mm 0,0 UV-I 0 W/m -0,6 C 0,2 C 0,0 km/h (0 Bft)
07.03.2016 20:05 0,2 C 94 % 1007,8 hPa 0,0 l/m 0,0 km/h (0 Bft) W-SW 246 0 min 0,000 mm 0,0 UV-I 0 W/m -0,6 C 0,2 C 0,0 km/h (0 Bft)
07.03.2016 20:10 0,2 C 94 % 1007,8 hPa 0,0 l/m 0,0 km/h (0 Bft) W-SW 246 0 min 0,000 mm 0,0 UV-I 0 W/m -0,6 C 0,2 C 0,0 km/h (0 Bft)
07.03.2016 20:15 0,1 C 94 % 1007,9 hPa 0,0 l/m 0,0 km/h (0 Bft) W-SW 246 0 min 0,000 mm 0,0 UV-I 0 W/m -0,7 C 0,1 C 0,0 km/h (0 Bft)
07.03.2016 20:20 0,0 C 93 % 1007,9 hPa 0,0 l/m 0,0 km/h (0 Bft) W-SW 246 0 min 0,000 mm 0,0 UV-I 0 W/m -1,0 C 0,0 C 0,0 km/h (0 Bft)
07.03.2016 20:25 -0,2 C 93 % 1007,9 hPa 0,0 l/m 0,0 km/h (0 Bft) W-SW 246 0 min 0,000 mm 0,0 UV-I 0 W/m -1,2 C -0,2 C 0,0 km/h (0 Bft)
07.03.2016 20:30 -0,3 C 94 % 1008,0 hPa 0,0 l/m 0,0 km/h (0 Bft) W-SW 246 0 min 0,000 mm 0,0 UV-I 0 W/m -1,1 C -0,3 C 0,0 km/h (0 Bft)
07.03.2016 20:35 -0,3 C 94 % 1008,0 hPa 0,0 l/m 0,0 km/h (0 Bft) W-SW 246 0 min 0,000 mm 0,0 UV-I 0 W/m -1,1 C -0,3 C 0,0 km/h (0 Bft)
07.03.2016 20:40 -0,4 C 94 % 1008,0 hPa 0,0 l/m 0,0 km/h (0 Bft) W-SW 246 0 min 0,000 mm 0,0 UV-I 0 W/m -1,2 C -0,4 C 0,0 km/h (0 Bft)
07.03.2016 20:45 -0,4 C 94 % 1008,1 hPa 0,0 l/m 0,0 km/h (0 Bft) W-SW 246 0 min 0,000 mm 0,0 UV-I 0 W/m -1,2 C -0,4 C 0,0 km/h (0 Bft)
07.03.2016 20:50 -0,4 C 94 % 1008,0 hPa 0,0 l/m 0,0 km/h (0 Bft) W-SW 246 0 min 0,000 mm 0,0 UV-I 0 W/m -1,2 C -0,4 C 0,0 km/h (0 Bft)
07.03.2016 20:55 -0,5 C 94 % 1008,1 hPa 0,0 l/m 0,0 km/h (0 Bft) W-SW 246 0 min 0,000 mm 0,0 UV-I 0 W/m -1,3 C -0,5 C 0,0 km/h (0 Bft)
07.03.2016 21:00 -0,6 C 94 % 1008,1 hPa 0,0 l/m 0,0 km/h (0 Bft) W-SW 246 0 min 0,000 mm 0,0 UV-I 0 W/m -1,4 C -0,6 C 0,0 km/h (0 Bft)
07.03.2016 21:05 -0,7 C 94 % 1008,1 hPa 0,0 l/m 0,0 km/h (0 Bft) W-SW 246 0 min 0,000 mm 0,0 UV-I 0 W/m -1,5 C -0,7 C 0,0 km/h (0 Bft)
07.03.2016 21:10 -0,7 C 94 % 1008,2 hPa 0,0 l/m 0,0 km/h (0 Bft) W-SW 246 0 min 0,000 mm 0,0 UV-I 0 W/m -1,5 C -0,7 C 0,0 km/h (0 Bft)
07.03.2016 21:15 -0,7 C 94 % 1008,3 hPa 0,0 l/m 0,0 km/h (0 Bft) W-SW 246 0 min 0,000 mm 0,0 UV-I 0 W/m -1,5 C -0,7 C 0,0 km/h (0 Bft)
07.03.2016 21:20 -0,8 C 94 % 1008,4 hPa 0,0 l/m 0,0 km/h (0 Bft) W-SW 246 0 min 0,000 mm 0,0 UV-I 0 W/m -1,6 C -0,8 C 0,0 km/h (0 Bft)
07.03.2016 21:25 -0,8 C 94 % 1008,4 hPa 0,0 l/m 0,0 km/h (0 Bft) W-SW 246 0 min 0,000 mm 0,0 UV-I 0 W/m -1,6 C -0,8 C 0,0 km/h (0 Bft)
07.03.2016 21:30 -0,8 C 94 % 1008,5 hPa 0,0 l/m 0,0 km/h (0 Bft) W-SW 246 0 min 0,000 mm 0,0 UV-I 0 W/m -1,6 C -0,8 C 0,0 km/h (0 Bft)
07.03.2016 21:35 -0,9 C 94 % 1008,6 hPa 0,0 l/m 0,0 km/h (0 Bft) W-SW 246 0 min 0,000 mm 0,0 UV-I 0 W/m -1,7 C -0,9 C 0,0 km/h (0 Bft)
07.03.2016 21:40 -0,9 C 95 % 1008,6 hPa 0,0 l/m 0,0 km/h (0 Bft) W-SW 252 0 min 0,000 mm 0,0 UV-I 0 W/m -1,6 C -0,9 C 0,0 km/h (0 Bft)
07.03.2016 21:45 -0,9 C 95 % 1008,7 hPa 0,0 l/m 0,0 km/h (0 Bft) W-SW 252 0 min 0,000 mm 0,0 UV-I 0 W/m -1,6 C -0,9 C 0,0 km/h (0 Bft)
07.03.2016 21:50 -0,9 C 95 % 1008,7 hPa 0,0 l/m 0,0 km/h (0 Bft) W-NW 288 0 min 0,000 mm 0,0 UV-I 0 W/m -1,6 C -0,9 C 0,0 km/h (0 Bft)
07.03.2016 21:55 -0,9 C 95 % 1008,7 hPa 0,0 l/m 0,0 km/h (0 Bft) W-NW 288 0 min 0,000 mm 0,0 UV-I 0 W/m -1,6 C -0,9 C 0,0 km/h (0 Bft)
07.03.2016 22:00 -0,9 C 95 % 1008,8 hPa 0,0 l/m 0,0 km/h (0 Bft) W-NW 288 0 min 0,000 mm 0,0 UV-I 0 W/m -1,6 C -0,9 C 0,0 km/h (0 Bft)
07.03.2016 22:05 -0,9 C 95 % 1008,8 hPa 0,0 l/m 0,0 km/h (0 Bft) W-NW 288 0 min 0,000 mm 0,0 UV-I 0 W/m -1,6 C -0,9 C 0,0 km/h (0 Bft)
07.03.2016 22:10 -0,9 C 95 % 1008,8 hPa 0,0 l/m 0,0 km/h (0 Bft) W-NW 288 0 min 0,000 mm 0,0 UV-I 0 W/m -1,6 C -0,9 C 0,0 km/h (0 Bft)
07.03.2016 22:15 -0,9 C 95 % 1008,9 hPa 0,0 l/m 0,0 km/h (0 Bft) W-NW 288 0 min 0,000 mm 0,0 UV-I 0 W/m -1,6 C -0,9 C 0,0 km/h (0 Bft)
07.03.2016 22:20 -0,9 C 95 % 1008,8 hPa 0,0 l/m 0,0 km/h (0 Bft) W-NW 288 0 min 0,000 mm 0,0 UV-I 0 W/m -1,6 C -0,9 C 0,0 km/h (0 Bft)
07.03.2016 22:25 -0,9 C 95 % 1008,9 hPa 0,0 l/m 0,0 km/h (0 Bft) W-NW 288 0 min 0,000 mm 0,0 UV-I 0 W/m -1,6 C -0,9 C 0,0 km/h (0 Bft)
07.03.2016 22:30 -1,0 C 95 % 1009,0 hPa 0,0 l/m 0,0 km/h (0 Bft) W-NW 288 0 min 0,000 mm 0,0 UV-I 0 W/m -1,7 C -1,0 C 0,0 km/h (0 Bft)
07.03.2016 22:35 -1,1 C 95 % 1009,0 hPa 0,0 l/m 0,0 km/h (0 Bft) W-NW 288 0 min 0,000 mm 0,0 UV-I 0 W/m -1,8 C -1,1 C 0,0 km/h (0 Bft)
07.03.2016 22:40 -1,2 C 95 % 1009,0 hPa 0,0 l/m 0,0 km/h (0 Bft) W-NW 288 0 min 0,000 mm 0,0 UV-I 0 W/m -1,9 C -1,2 C 0,0 km/h (0 Bft)
07.03.2016 22:45 -1,2 C 95 % 1009,1 hPa 0,0 l/m 0,0 km/h (0 Bft) W-SW 240 0 min 0,000 mm 0,0 UV-I 0 W/m -1,9 C -1,2 C 0,0 km/h (0 Bft)
07.03.2016 22:50 -1,3 C 95 % 1009,1 hPa 0,0 l/m 0,0 km/h (0 Bft) W-SW 240 0 min 0,000 mm 0,0 UV-I 0 W/m -2,0 C -1,3 C 0,0 km/h (0 Bft)
07.03.2016 22:55 -1,3 C 95 % 1009,1 hPa 0,0 l/m 0,0 km/h (0 Bft) W-SW 240 0 min 0,000 mm 0,0 UV-I 0 W/m -2,0 C -1,3 C 0,0 km/h (0 Bft)
07.03.2016 23:00 -1,4 C 95 % 1009,2 hPa 0,0 l/m 0,0 km/h (0 Bft) W-SW 240 0 min 0,000 mm 0,0 UV-I 0 W/m -2,1 C -1,4 C 0,0 km/h (0 Bft)
07.03.2016 23:05 -1,4 C 95 % 1009,2 hPa 0,0 l/m 0,0 km/h (0 Bft) W-SW 240 0 min 0,000 mm 0,0 UV-I 0 W/m -2,1 C -1,4 C 0,0 km/h (0 Bft)
07.03.2016 23:10 -1,4 C 95 % 1009,3 hPa 0,0 l/m 0,0 km/h (0 Bft) W-SW 240 0 min 0,000 mm 0,0 UV-I 0 W/m -2,1 C -1,4 C 0,0 km/h (0 Bft)
07.03.2016 23:15 -1,4 C 95 % 1009,3 hPa 0,0 l/m 0,0 km/h (0 Bft) W-SW 241 0 min 0,000 mm 0,0 UV-I 0 W/m -2,1 C -1,4 C 0,0 km/h (0 Bft)
07.03.2016 23:20 -1,5 C 95 % 1009,3 hPa 0,0 l/m 0,0 km/h (0 Bft) W-SW 243 0 min 0,000 mm 0,0 UV-I 0 W/m -2,2 C -1,5 C 0,0 km/h (0 Bft)
07.03.2016 23:25 -1,5 C 95 % 1009,3 hPa 0,0 l/m 0,0 km/h (0 Bft) W-SW 243 0 min 0,000 mm 0,0 UV-I 0 W/m -2,2 C -1,5 C 0,0 km/h (0 Bft)
07.03.2016 23:30 -1,5 C 96 % 1009,4 hPa 0,0 l/m 0,0 km/h (0 Bft) W-SW 243 0 min 0,000 mm 0,0 UV-I 0 W/m -2,1 C -1,5 C 0,0 km/h (0 Bft)
07.03.2016 23:35 -1,5 C 96 % 1009,4 hPa 0,0 l/m 0,0 km/h (0 Bft) W 262 0 min 0,000 mm 0,0 UV-I 0 W/m -2,1 C -1,5 C 0,0 km/h (0 Bft)
07.03.2016 23:40 -1,4 C 96 % 1009,5 hPa 0,0 l/m 0,0 km/h (0 Bft) W 262 0 min 0,000 mm 0,0 UV-I 0 W/m -2,0 C -1,4 C 0,0 km/h (0 Bft)
07.03.2016 23:45 -1,4 C 96 % 1009,5 hPa 0,0 l/m 0,0 km/h (0 Bft) W 262 0 min 0,000 mm 0,0 UV-I 0 W/m -2,0 C -1,4 C 0,0 km/h (0 Bft)
07.03.2016 23:50 -1,4 C 96 % 1009,5 hPa 0,0 l/m 0,0 km/h (0 Bft) W 262 0 min 0,000 mm 0,0 UV-I 0 W/m -2,0 C -1,4 C 0,0 km/h (0 Bft)
07.03.2016 23:55 -1,4 C 96 % 1009,6 hPa 0,0 l/m 0,0 km/h (0 Bft) W 262 0 min 0,000 mm 0,0 UV-I 0 W/m -2,0 C -1,4 C 0,0 km/h (0 Bft)
_ Min-Zeit 23:20 15:35 00:00 - 00:05 - - - - - - 23:20 23:20 00:05
Minimum _ -1,5 C 79 % 1002,0 hPa - 0,0 km/h (0 Bft) - - - - - - -2,2 C -1,5 C 0,0 km/h (0 Bft)
_ Max-Zeit 15:35 06:35 23:55 00:00 02:10 - - 09:50 16:05 11:40 15:35 11:50 15:30 01:00
Maximum _ 5,6 C 96 % 1009,6 hPa 0,0 l/m 3,0 km/h
W-NW (1 Bft)
- - 5 min 0,101 mm 1,3 UV-I 420 W/m 2,4 C 5,5 C 9,7 km/h
W (2 Bft)
Durchschnitt _ 1,0 C 92 % 1004,8 hPa #0,0 l/m 0,2 km/h (0 Bft) W-NW - #1:00 h #0,483 mm 0,8 UV-I 130 W/m -0,2 C 1,0 C 1,0 km/h (0 Bft)